Location: Arroyo de Valdeoliva
(40.1604°N, 4.9878°W)
Time: 09:28:40
(UTC+00:00)

BlueWalker 3 - Pass Details

Date: 22 February 2026
Orbit: 451 x 458 km, 53.2° (Epoch: 6 March)

Event Time Altitude Azimuth Distance (km) Brightness Sun altitude
Rises 06:21:44 0° 214° (SSW) 2,461 5.2 -8.8°
Reaches altitude 10° 06:23:55 10° 207° (SSW) 1,590 4.3 -8.3°
Maximum altitude 06:27:20 44° 135° (SE) 643 3.0 -7.7°
Drops below altitude 10° 06:30:46 10° 62° (ENE) 1,596 5.4 -7.0°
Sets 06:32:58 0° 56° (NE) 2,471 6.3 -6.6°
